Weather History for Honolulu, HI

Change the Weather History Date:

Tuesday, February 4, 2014

  Actual Average Record
Temperature  
Mean Temperature 69 °F 73 °F  
Max Temperature 71 °F 80 °F 86 °F (1977)
Min Temperature 67 °F 66 °F 54 °F (1993)
Degree Days  
Heating Degree Days 0 0  
Month to date heating degree days 0 0  
Since 1 July heating degree days 0 0  
Cooling Degree Days 4 8  
Month to date cooling degree days 30 32  
Year to date cooling degree days 276 286  
Growing Degree Days 18 (Base 50)    
Moisture  
Dew Point 66 °F    
Average Humidity 90    
Maximum Humidity 100    
Minimum Humidity 79    
Precipitation  
Precipitation 0.35 in 0.06 in 0.96 in (1957)
Month to date precipitation 0.83 0.27  
Year to date precipitation 3.28 2.58  
Snow  
Snow 0.00 in - - ()
Month to date snowfall 0.0  
Since 1 July snowfall 0.0  
Snow Depth 0.00 in    
Sea Level Pressure  
Sea Level Pressure 29.93 in    
Wind  
Wind Speed 3 mph (North)    
Max Wind Speed 13 mph    
Max Gust Speed 21 mph    
Visibility 9 miles    
Events Rain    
T = Trace of Precipitation, MM = Missing Value Source: NWS Daily Summary

Daily Weather History Graph

Daily Weather History Graph

Search for Another Location

Airport:

Trip Planner

Search our weather history database for the weather conditions in past years. The results will help you decide how hot, cold, wet, or windy it might be!

Date:

Astronomy

Feb. 04, 2014 Rise Set
Actual Time 7:07 AM HST 6:23 PM HST
Civil Twilight 6:44 AM HST 6:46 PM HST
Nautical Twilight 6:18 AM HST 7:13 PM HST
Astronomical Twilight 5:51 AM HST 7:39 PM HST
Moon 10:39 AM HST (2/4) 11:38 PM HST (2/4)
Length of Visible Light 12h 02m
Length of Day
11h 16m
Waxing Crescent, 31% of the Moon is Illuminated
Feb 4
Waxing Crescent
Feb 6
First Quarter
Feb 14
Full
Feb 22
Last Quarter
Feb 28
New

Hourly Weather History & Observations

Time (HST) Temp. Dew Point Humidity Pressure Visibility Wind Dir Wind Speed Gust Speed Precip Events Conditions
12:53 AM 68.0 °F 66.0 °F 93% 29.96 in 10.0 mi Calm Calm - 0.00 in   Overcast
1:53 AM 68.0 °F 66.0 °F 93% 29.95 in 10.0 mi Calm Calm - 0.01 in Rain Light Rain
2:53 AM 66.9 °F 66.0 °F 97% 29.92 in 10.0 mi NNE 3.5 mph - 0.00 in   Overcast
3:53 AM 66.9 °F 64.9 °F 93% 29.92 in 10.0 mi NNW 5.8 mph - 0.01 in Rain Light Rain
4:53 AM 66.9 °F 64.9 °F 93% 29.92 in 10.0 mi Calm Calm - 0.02 in Rain Light Rain
5:53 AM 66.9 °F 66.0 °F 97% 29.93 in 10.0 mi Calm Calm - 0.02 in Rain Light Rain
6:53 AM 66.9 °F 64.9 °F 93% 29.95 in 10.0 mi NNE 3.5 mph - 0.03 in Rain Light Rain
7:53 AM 68.0 °F 66.0 °F 93% 29.97 in 10.0 mi Calm Calm - 0.01 in Rain Light Rain
8:53 AM 68.0 °F 66.0 °F 93% 29.98 in 7.0 mi NNW 4.6 mph - 0.02 in Rain Light Rain
9:19 AM 68.0 °F 66.2 °F 94% 29.99 in 6.0 mi NNW 8.1 mph - 0.03 in Rain Rain
9:28 AM 68.0 °F 66.2 °F 94% 29.99 in 5.0 mi NNW 8.1 mph - 0.04 in Rain Rain
9:42 AM 68.0 °F 66.2 °F 94% 29.99 in 10.0 mi NNW 10.4 mph - 0.05 in Rain Light Rain
9:53 AM 68.0 °F 66.0 °F 93% 29.99 in 10.0 mi NNW 12.7 mph 20.7 mph 0.05 in Rain Light Rain
10:53 AM 69.1 °F 66.9 °F 93% 29.99 in 6.0 mi Calm Calm - 0.03 in Rain Rain
11:46 AM 68.0 °F 66.2 °F 94% 29.96 in 5.0 mi WNW 4.6 mph - 0.09 in Rain Light Rain
11:53 AM 69.1 °F 66.9 °F 93% 29.96 in 9.0 mi WNW 3.5 mph - 0.10 in Rain Light Rain
12:20 PM 69.8 °F 66.2 °F 88% 29.94 in 10.0 mi ESE 3.5 mph - 0.00 in Rain Light Rain
12:53 PM 70.0 °F 66.9 °F 90% 29.93 in 10.0 mi SSE 3.5 mph - 0.00 in   Mostly Cloudy
1:53 PM 71.1 °F 66.9 °F 87% 29.89 in 9.0 mi South 4.6 mph - 0.00 in Rain Light Rain
2:53 PM 70.0 °F 66.0 °F 87% 29.87 in 7.0 mi SE 4.6 mph - 0.01 in Rain Light Rain
3:53 PM 71.1 °F 66.0 °F 84% 29.87 in 10.0 mi ESE 4.6 mph - 0.01 in   Mostly Cloudy
4:53 PM 71.1 °F 64.9 °F 81% 29.88 in 10.0 mi Calm Calm - 0.00 in Rain Light Rain
5:53 PM 70.0 °F 66.9 °F 90% 29.88 in 10.0 mi Calm Calm - 0.02 in Rain Light Rain
6:53 PM 70.0 °F 66.0 °F 87% 29.89 in 10.0 mi Calm Calm - 0.01 in   Mostly Cloudy
7:53 PM 70.0 °F 68.0 °F 93% 29.91 in 10.0 mi North 3.5 mph - 0.00 in Rain Light Rain
8:53 PM 69.1 °F 66.9 °F 93% 29.92 in 10.0 mi Calm Calm - 0.00 in   Mostly Cloudy
9:53 PM 68.0 °F 66.0 °F 93% 29.92 in 10.0 mi NNW 4.6 mph - N/A   Mostly Cloudy
10:53 PM 68.0 °F 64.9 °F 90% 29.92 in 10.0 mi NNW 3.5 mph - N/A   Scattered Clouds
11:53 PM 68.0 °F 66.0 °F 93% 29.91 in 10.0 mi Calm Calm - 0.00 in   Mostly Cloudy